673  
ASUS41 KALY 261010  
RWRALY  
 
NEW YORK STATE HOURLY WEATHER ROUNDUP  
NATIONAL WEATHER SERVICE ALBANY NY  
600 AM EDT SUN MAR 26 2017  
 
NOTE: "FAIR" INDICATES FEW OR NO CLOUDS BELOW 12,000 FEET WITH NO  
SIGNIFICANT WEATHER AND/OR NO S TO VISIBILITY
.  
 
NYZ032-033-038>043-046>054-057>066-NYZ062>081-082-084-261100-  
EAST  
 
 
CITY SKY/WX TMP DP RH WIND PRES REMARKS
 
ALBANY CLOUDY 27 17 66 CALM 30.48R  
GLENS FALLS CLOUDY 19 16 88 CALM 30.48R  
POUGHKEEPSIE CLOUDY 33 29 85 N7 30.45R WCI 27  
NEWBURGH CLOUDY 34 32 93 NE9 30.44S WCI 26  
MONTGOMERY CLOUDY 34 28 79 NE9 30.42S WCI 27  
WHITE PLAINS CLOUDY 37 30 75 E9 30.42R WCI 30  
ISLIP CLOUDY 38 34 85 NE12 30.42R WCI 30  
NEW YORK CITY CLOUDY 40 33 76 NE17 30.42R WCI 31  
CENTRAL PARK CLOUDY 38 33 82 E14G21 30.44R WCI 30  

 
 
NYZ005>009-017-018-044>046-055-056-261100-  
CENTRAL  
 
 
CITY SKY/WX TMP DP RH WIND PRES REMARKS
 
FULTON LGT RAIN 36 27 69 E9 30.34F WCI 29  
SYRACUSE FRZ RAIN 34 28 79 E12 30.35S WCI 25  
ROME CLOUDY 32 24 72 SE13 30.40S WCI 22  
ELMIRA CLOUDY 39 35 86 NE5 30.31R  
BINGHAMTON LGT RAIN 33 33 100 SE8 30.32R WCI 26  
MONTICELLO CLOUDY 30 27 86 E9 30.39R WCI 22  

 
 
NYZ026>034-041>043-087-261100-  
NORTH  
 
 
CITY SKY/WX TMP DP RH WIND PRES REMARKS
 
WATERTOWN CLOUDY 29 27 92 E9 30.37F WCI 20  
FORT DRUM NOT AVBL  
MASSENA CLOUDY 20 16 84 E6 30.49R WCI 12  
SARANAC LAKE CLOUDY 3 1 91 CALM 30.36S  
PLATTSBURGH CLOUDY 12 9 87 VRB3 30.51R  

 
 
NYZ001>004-010>016-019>021-085-261100-  
WEST  
 
 
CITY SKY/WX TMP DP RH WIND PRES REMARKS
 
NIAGARA FALLS CLOUDY 38 33 82 E17 30.20S WCI 28  
BUFFALO CLOUDY 37 33 85 NE16 30.19F WCI 28  
DUNKIRK MOCLDY 38 36 92 NE9 30.14F WCI 31  
JAMESTOWN CLOUDY 43 39 87 S7 30.14S  
WELLSVILLE FOG 36 35 96 SE8 30.23S VSB 1/4 WCI 30  
ROCHESTER LGT RAIN 36 34 92 E13 30.28F WCI 27  
PENN YAN FOG 35 32 88 E3 30.29F VSB 1/2  

 
 
KEY  
WCI = WIND CHILL INDEX  
VSB = VISIBILITY  
HX = HEAT INDEX  

 
 
 
CLICK HERE TO GO TO PREVIOUS BULLETINS.

The Nexlab NY Page
The Nexlab VT Page
The Nexlab MA Page
The Nexlab CT Page Main Text Page